Time,TemperatureF,DewpointF,PressureIn,WindDirection,WindDirectionDegrees,WindSpeedMPH,WindSpeedGustMPH,Humidity,HourlyPrecipIn,Conditions,Clouds,dailyrainin,SoftwareType,DateUTC
2013-05-12 00:01:00,53.3,51.6,29.96,SSE,159,0.0,5.0,94,0.00,,---,0.50,VWS V14.00,2013-05-12 04:01:00,
2013-05-12 00:06:00,53.2,51.5,29.96,SSE,159,0.0,5.0,94,0.00,,---,0.50,VWS V14.00,2013-05-12 04:06:00,
2013-05-12 00:11:00,53.2,51.5,29.95,SSE,159,0.0,1.0,94,0.00,,---,0.00,VWS V14.00,2013-05-12 04:11:00,
2013-05-12 00:16:00,53.1,51.4,29.95,SSE,159,0.0,3.0,94,0.00,,---,0.00,VWS V14.00,2013-05-12 04:16:00,
2013-05-12 00:21:00,53.0,51.3,29.95,SSE,159,0.0,3.0,94,0.00,,---,0.00,VWS V14.00,2013-05-12 04:21:00,
2013-05-12 00:26:00,53.0,51.3,29.95,SSE,159,0.0,3.0,94,0.00,,---,0.00,VWS V14.00,2013-05-12 04:26:00,
2013-05-12 00:31:00,53.0,51.3,29.95,SSE,159,0.0,3.0,94,0.00,,---,0.00,VWS V14.00,2013-05-12 04:31:00,
2013-05-12 00:36:00,52.8,51.1,29.95,SSE,157,0.0,4.0,94,0.00,,---,0.00,VWS V14.00,2013-05-12 04:36:00,
2013-05-12 00:41:00,52.6,50.6,29.95,South,169,0.0,7.0,93,0.00,,---,0.00,VWS V14.00,2013-05-12 04:41:00,
2013-05-12 00:46:00,52.4,50.4,29.95,South,169,0.0,7.0,93,0.00,,---,0.00,VWS V14.00,2013-05-12 04:46:00,
2013-05-12 00:51:00,52.3,50.3,29.95,SSE,156,0.0,7.0,93,0.00,,---,0.00,VWS V14.00,2013-05-12 04:51:00,
2013-05-12 00:56:00,52.2,50.2,29.95,SSE,156,0.0,7.0,93,0.00,,---,0.00,VWS V14.00,2013-05-12 04:56:00,
2013-05-12 01:01:00,52.0,49.8,29.95,SSE,157,0.0,7.0,92,0.00,,---,0.00,VWS V14.00,2013-05-12 05:01:00,
2013-05-12 01:06:00,51.9,49.7,29.96,SSE,165,0.0,7.0,92,0.00,,---,0.00,VWS V14.00,2013-05-12 05:06:00,
2013-05-12 01:11:00,51.9,49.7,29.95,SW,222,0.0,3.0,92,0.00,,---,0.00,VWS V14.00,2013-05-12 05:11:00,
2013-05-12 01:16:00,51.6,49.4,29.95,WSW,240,0.0,5.0,92,0.00,,---,0.00,VWS V14.00,2013-05-12 05:16:00,
2013-05-12 01:21:00,51.5,49.0,29.95,SSW,193,0.0,5.0,91,0.00,,---,0.00,VWS V14.00,2013-05-12 05:21:00,
2013-05-12 01:26:00,51.3,48.8,29.95,South,180,1.0,5.0,91,0.00,,---,0.00,VWS V14.00,2013-05-12 05:26:00,
2013-05-12 01:31:00,51.1,48.6,29.94,SSE,157,0.0,5.0,91,0.00,,---,0.00,VWS V14.00,2013-05-12 05:31:00,
2013-05-12 01:36:00,51.1,48.9,29.95,SSE,156,0.0,5.0,92,0.00,,---,0.00,VWS V14.00,2013-05-12 05:36:00,
2013-05-12 01:41:00,50.9,48.7,29.94,SSE,157,0.0,1.0,92,0.00,,---,0.00,VWS V14.00,2013-05-12 05:41:00,
2013-05-12 01:46:00,50.8,48.6,29.95,SSE,156,0.0,1.0,92,0.00,,---,0.00,VWS V14.00,2013-05-12 05:46:00,
2013-05-12 01:51:00,50.5,48.3,29.95,SSE,157,0.0,1.0,92,0.00,,---,0.00,VWS V14.00,2013-05-12 05:51:00,
2013-05-12 01:56:00,50.3,48.1,29.95,SSE,157,0.0,1.0,92,0.00,,---,0.00,VWS V14.00,2013-05-12 05:56:00,
2013-05-12 02:01:00,50.0,47.8,29.95,SSE,156,0.0,2.0,92,0.00,,---,0.00,VWS V14.00,2013-05-12 06:01:00,
2013-05-12 02:06:00,49.9,48.0,29.95,SSE,156,0.0,2.0,93,0.00,,---,0.00,VWS V14.00,2013-05-12 06:06:00,
2013-05-12 02:11:00,49.7,47.8,29.95,SSE,157,2.0,2.0,93,0.00,,---,0.00,VWS V14.00,2013-05-12 06:11:00,
2013-05-12 02:16:00,49.5,47.6,29.95,SSE,157,0.0,3.0,93,0.00,,---,0.00,VWS V14.00,2013-05-12 06:16:00,
2013-05-12 02:21:00,49.3,47.4,29.95,SSE,156,0.0,3.0,93,0.00,,---,0.00,VWS V14.00,2013-05-12 06:21:00,
2013-05-12 02:26:00,49.1,47.2,29.95,SSE,156,0.0,3.0,93,0.00,,---,0.00,VWS V14.00,2013-05-12 06:26:00,
2013-05-12 02:31:00,49.0,47.1,29.95,SSE,157,0.0,3.0,93,0.00,,---,0.00,VWS V14.00,2013-05-12 06:31:00,
2013-05-12 02:36:00,48.9,47.2,29.95,SSE,157,1.0,3.0,94,0.00,,---,0.00,VWS V14.00,2013-05-12 06:36:00,
2013-05-12 02:41:00,49.0,47.3,29.95,SSE,157,0.0,3.0,94,0.00,,---,0.00,VWS V14.00,2013-05-12 06:41:00,
2013-05-12 02:46:00,49.0,47.3,29.95,SSE,156,0.0,3.0,94,0.00,,---,0.00,VWS V14.00,2013-05-12 06:46:00,
2013-05-12 02:51:00,49.0,47.3,29.95,SSE,156,1.0,3.0,94,0.00,,---,0.00,VWS V14.00,2013-05-12 06:51:00,
2013-05-12 02:56:00,48.9,47.2,29.95,SSE,157,0.0,3.0,94,0.00,,---,0.00,VWS V14.00,2013-05-12 06:56:00,
2013-05-12 03:01:00,48.8,47.2,29.95,SSE,157,0.0,3.0,94,0.00,,---,0.00,VWS V14.00,2013-05-12 07:01:00,
2013-05-12 03:06:00,48.7,47.0,29.95,SSE,157,0.0,3.0,94,0.00,,---,0.00,VWS V14.00,2013-05-12 07:06:00,
2013-05-12 03:11:00,48.7,47.0,29.97,SSE,156,0.0,1.0,94,0.00,,---,0.00,VWS V14.00,2013-05-12 07:11:00,
2013-05-12 03:16:00,48.6,47.0,29.97,SSE,157,0.0,1.0,94,0.00,,---,0.00,VWS V14.00,2013-05-12 07:16:00,
2013-05-12 03:21:00,48.5,46.9,29.97,SSE,156,0.0,1.0,94,0.00,,---,0.00,VWS V14.00,2013-05-12 07:21:00,
2013-05-12 03:26:00,48.4,46.8,29.96,SSE,156,0.0,2.0,94,0.00,,---,0.00,VWS V14.00,2013-05-12 07:26:00,
2013-05-12 03:31:00,48.3,46.7,29.97,SSE,156,0.0,2.0,94,0.00,,---,0.00,VWS V14.00,2013-05-12 07:31:00,
2013-05-12 03:36:00,48.2,46.6,29.97,SSE,157,0.0,2.0,94,0.00,,---,0.00,VWS V14.00,2013-05-12 07:36:00,
2013-05-12 03:41:00,48.1,46.5,29.97,SSE,157,0.0,0.0,94,0.00,,---,0.00,VWS V14.00,2013-05-12 07:41:00,
2013-05-12 03:46:00,48.1,46.5,29.97,SSE,157,2.0,2.0,94,0.00,,---,0.00,VWS V14.00,2013-05-12 07:46:00,
2013-05-12 03:51:00,47.9,46.3,29.97,SSW,206,0.0,2.0,94,0.00,,---,0.00,VWS V14.00,2013-05-12 07:51:00,
2013-05-12 03:56:00,47.8,46.2,29.97,SSW,206,0.0,2.0,94,0.00,,---,0.00,VWS V14.00,2013-05-12 07:56:00,
2013-05-12 04:01:00,47.6,46.0,29.97,SSW,194,0.0,4.0,94,0.00,,---,0.00,VWS V14.00,2013-05-12 08:01:00,
2013-05-12 04:05:00,47.6,46.2,29.97,SSW,194,0.0,4.0,95,0.00,,---,0.00,VWS V14.00,2013-05-12 08:05:00,
2013-05-12 04:10:00,47.6,46.2,29.97,SSE,167,0.0,2.0,95,0.00,,---,0.00,VWS V14.00,2013-05-12 08:10:00,
2013-05-12 04:15:00,47.5,46.1,29.97,SSE,159,0.0,5.0,95,0.00,,---,0.00,VWS V14.00,2013-05-12 08:15:00,
2013-05-12 04:20:00,47.5,46.1,29.97,SW,230,0.0,5.0,95,0.00,,---,0.00,VWS V14.00,2013-05-12 08:20:00,
2013-05-12 04:25:00,47.5,46.1,29.97,SW,230,0.0,5.0,95,0.00,,---,0.00,VWS V14.00,2013-05-12 08:25:00,
2013-05-12 04:30:00,47.5,46.1,29.97,SSE,153,0.0,5.0,95,0.00,,---,0.00,VWS V14.00,2013-05-12 08:30:00,
2013-05-12 04:35:00,47.5,46.1,29.97,NE,36,1.0,5.0,95,0.00,,---,0.00,VWS V14.00,2013-05-12 08:35:00,
2013-05-12 04:40:00,47.6,46.2,29.97,NE,34,0.0,0.0,95,0.00,,---,0.00,VWS V14.00,2013-05-12 08:40:00,
2013-05-12 04:45:00,47.6,46.2,29.97,NNE,33,0.0,2.0,95,0.00,,---,0.00,VWS V14.00,2013-05-12 08:45:00,
2013-05-12 04:50:00,47.7,46.3,29.97,South,175,0.0,4.0,95,0.00,,---,0.00,VWS V14.00,2013-05-12 08:50:00,
2013-05-12 04:55:00,47.7,46.3,29.97,South,175,0.0,4.0,95,0.00,,---,0.00,VWS V14.00,2013-05-12 08:55:00,
2013-05-12 05:00:00,47.8,46.4,29.97,South,175,0.0,4.0,95,0.00,,---,0.00,VWS V14.00,2013-05-12 09:00:00,
2013-05-12 05:05:00,47.8,46.7,29.97,South,175,0.0,4.0,96,0.00,,---,0.00,VWS V14.00,2013-05-12 09:05:00,
2013-05-12 05:10:00,47.9,46.8,29.97,South,175,0.0,0.0,96,0.00,,---,0.00,VWS V14.00,2013-05-12 09:10:00,
2013-05-12 05:15:00,47.9,46.8,29.98,West,263,1.0,3.0,96,0.00,,---,0.00,VWS V14.00,2013-05-12 09:15:00,
2013-05-12 05:20:00,48.0,46.9,29.98,West,263,0.0,3.0,96,0.00,,---,0.00,VWS V14.00,2013-05-12 09:20:00,
2013-05-12 05:25:00,48.0,46.9,29.97,West,263,0.0,3.0,96,0.00,,---,0.00,VWS V14.00,2013-05-12 09:25:00,
2013-05-12 05:30:00,48.0,46.9,29.97,West,263,0.0,3.0,96,0.00,,---,0.00,VWS V14.00,2013-05-12 09:30:00,
2013-05-12 05:35:00,48.1,47.0,29.97,West,263,0.0,3.0,96,0.00,,---,0.00,VWS V14.00,2013-05-12 09:35:00,
2013-05-12 05:40:00,48.1,47.0,29.97,West,263,0.0,3.0,96,0.00,,---,0.00,VWS V14.00,2013-05-12 09:40:00,
2013-05-12 05:45:00,48.2,47.1,29.97,West,263,0.0,3.0,96,0.00,,---,0.00,VWS V14.00,2013-05-12 09:45:00,
2013-05-12 05:50:00,48.2,47.1,29.97,West,263,0.0,3.0,96,0.00,,---,0.00,VWS V14.00,2013-05-12 09:50:00,
2013-05-12 05:55:00,48.2,47.1,29.97,West,263,0.0,3.0,96,0.00,,---,0.00,VWS V14.00,2013-05-12 09:55:00,
2013-05-12 06:00:00,48.2,47.1,29.98,West,263,0.0,3.0,96,0.00,,---,0.00,VWS V14.00,2013-05-12 10:00:00,
2013-05-12 06:05:00,48.3,47.2,29.98,West,263,0.0,3.0,96,0.00,,---,0.00,VWS V14.00,2013-05-12 10:05:00,
2013-05-12 06:10:00,48.3,47.2,29.98,West,263,0.0,0.0,96,0.00,,---,0.00,VWS V14.00,2013-05-12 10:10:00,
2013-05-12 06:15:00,48.3,47.2,29.98,West,263,1.0,1.0,96,0.00,,---,0.00,VWS V14.00,2013-05-12 10:15:00,
2013-05-12 06:20:00,48.4,47.3,29.98,West,263,0.0,2.0,96,0.00,,---,0.00,VWS V14.00,2013-05-12 10:20:00,
2013-05-12 06:25:00,48.4,47.3,29.99,West,263,0.0,2.0,96,0.00,,---,0.00,VWS V14.00,2013-05-12 10:25:00,
2013-05-12 06:30:00,48.5,47.4,29.98,WSW,253,0.0,2.0,96,0.00,,---,0.00,VWS V14.00,2013-05-12 10:30:00,
2013-05-12 06:35:00,48.5,47.4,29.98,WSW,253,0.0,2.0,96,0.00,,---,0.00,VWS V14.00,2013-05-12 10:35:00,
2013-05-12 06:40:00,48.6,47.5,29.98,WSW,254,0.0,3.0,96,0.00,,---,0.00,VWS V14.00,2013-05-12 10:40:00,
2013-05-12 06:45:00,48.6,47.5,29.98,WSW,253,0.0,3.0,96,0.00,,---,0.00,VWS V14.00,2013-05-12 10:45:00,
2013-05-12 06:50:00,48.6,47.5,29.98,WSW,253,0.0,3.0,96,0.00,,---,0.00,VWS V14.00,2013-05-12 10:50:00,
2013-05-12 06:55:00,48.7,47.6,29.98,WSW,254,0.0,3.0,96,0.00,,---,0.00,VWS V14.00,2013-05-12 10:55:00,
2013-05-12 07:00:00,48.8,47.7,29.99,WSW,255,0.0,3.0,96,0.00,,---,0.00,VWS V14.00,2013-05-12 11:00:00,
2013-05-12 07:05:00,48.8,47.7,29.99,West,264,2.0,3.0,96,0.00,,---,0.00,VWS V14.00,2013-05-12 11:05:00,
2013-05-12 07:10:00,48.9,47.8,30.00,ENE,65,0.0,0.0,96,0.00,,---,0.00,VWS V14.00,2013-05-12 11:10:00,
2013-05-12 07:15:00,48.9,47.8,30.00,WNW,294,0.0,2.0,96,0.00,,---,0.00,VWS V14.00,2013-05-12 11:15:00,
2013-05-12 07:20:00,49.0,47.6,30.00,South,187,0.0,3.0,95,0.00,,---,0.00,VWS V14.00,2013-05-12 11:20:00,
2013-05-12 07:25:00,49.1,48.0,30.00,South,187,0.0,3.0,96,0.00,,---,0.00,VWS V14.00,2013-05-12 11:25:00,
2013-05-12 07:30:00,49.1,47.7,30.00,South,178,0.0,5.0,95,0.00,,---,0.00,VWS V14.00,2013-05-12 11:30:00,
2013-05-12 07:35:00,49.2,47.8,30.00,South,178,0.0,5.0,95,0.00,,---,0.00,VWS V14.00,2013-05-12 11:35:00,
2013-05-12 07:40:00,49.2,47.8,30.01,South,178,0.0,4.0,95,0.00,,---,0.00,VWS V14.00,2013-05-12 11:40:00,
2013-05-12 07:45:00,49.2,47.5,30.01,SE,137,0.0,4.0,94,0.00,,---,0.00,VWS V14.00,2013-05-12 11:45:00,
2013-05-12 07:50:00,49.2,47.5,30.01,SE,136,0.0,4.0,94,0.00,,---,0.00,VWS V14.00,2013-05-12 11:50:00,
2013-05-12 07:55:00,49.2,47.3,30.01,SE,135,0.0,4.0,93,0.00,,---,0.00,VWS V14.00,2013-05-12 11:55:00,
2013-05-12 08:00:00,49.2,47.3,30.01,SSE,165,0.0,5.0,93,0.00,,---,0.00,VWS V14.00,2013-05-12 12:00:00,
2013-05-12 08:05:00,49.2,47.0,30.01,SSE,150,0.0,5.0,92,0.00,,---,0.00,VWS V14.00,2013-05-12 12:05:00,
2013-05-12 08:10:00,49.2,46.7,30.02,SSE,157,0.0,5.0,91,0.00,,---,0.00,VWS V14.00,2013-05-12 12:10:00,
2013-05-12 08:15:00,49.2,46.7,30.01,SSE,157,0.0,5.0,91,0.00,,---,0.00,VWS V14.00,2013-05-12 12:15:00,
2013-05-12 08:20:00,49.5,47.3,30.01,SSE,157,0.0,5.0,92,0.00,,---,0.00,VWS V14.00,2013-05-12 12:20:00,
2013-05-12 08:25:00,49.7,47.2,30.01,SSE,150,0.0,5.0,91,0.00,,---,0.00,VWS V14.00,2013-05-12 12:25:00,
2013-05-12 08:30:00,49.7,46.6,30.01,South,171,0.0,5.0,89,0.00,,---,0.00,VWS V14.00,2013-05-12 12:30:00,
2013-05-12 08:35:00,49.8,46.7,30.01,SSE,167,3.0,6.0,89,0.00,,---,0.00,VWS V14.00,2013-05-12 12:35:00,
2013-05-12 08:40:00,49.8,46.7,30.02,SSE,164,0.0,1.0,89,0.00,,---,0.00,VWS V14.00,2013-05-12 12:40:00,
2013-05-12 08:45:00,49.8,46.4,30.02,SSE,164,0.0,2.0,88,0.00,,---,0.00,VWS V14.00,2013-05-12 12:45:00,
2013-05-12 08:50:00,49.8,46.7,30.02,East,79,0.0,4.0,89,0.00,,---,0.00,VWS V14.00,2013-05-12 12:50:00,
2013-05-12 08:55:00,49.9,46.8,30.02,ESE,112,0.0,4.0,89,0.00,,---,0.00,VWS V14.00,2013-05-12 12:55:00,
2013-05-12 09:00:00,50.3,47.2,30.02,South,191,0.0,4.0,89,0.00,,---,0.00,VWS V14.00,2013-05-12 13:00:00,
2013-05-12 09:05:00,50.8,47.1,30.02,South,175,0.0,4.0,87,0.00,,---,0.00,VWS V14.00,2013-05-12 13:05:00,
2013-05-12 09:10:00,51.3,46.6,30.02,South,169,1.0,3.0,84,0.00,,---,0.00,VWS V14.00,2013-05-12 13:10:00,
2013-05-12 09:15:00,51.6,46.6,30.02,South,171,0.0,3.0,83,0.00,,---,0.00,VWS V14.00,2013-05-12 13:15:00,
2013-05-12 09:20:00,51.7,46.4,30.02,ESE,123,2.0,6.0,82,0.00,,---,0.00,VWS V14.00,2013-05-12 13:20:00,
2013-05-12 09:25:00,51.5,44.9,30.02,ESE,102,0.0,6.0,78,0.00,,---,0.00,VWS V14.00,2013-05-12 13:25:00,
2013-05-12 09:30:00,51.4,44.4,30.03,SSE,157,2.0,6.0,77,0.00,,---,0.00,VWS V14.00,2013-05-12 13:30:00,
2013-05-12 09:35:00,51.0,44.0,30.03,ESE,118,0.0,6.0,77,0.00,,---,0.00,VWS V14.00,2013-05-12 13:35:00,
2013-05-12 09:40:00,51.0,45.7,30.03,SW,222,1.0,4.0,82,0.00,,---,0.00,VWS V14.00,2013-05-12 13:40:00,
2013-05-12 09:45:00,51.1,45.8,30.02,SW,223,0.0,4.0,82,0.00,,---,0.00,VWS V14.00,2013-05-12 13:45:00,
2013-05-12 09:50:00,51.2,44.9,30.02,SE,130,0.0,5.0,79,0.00,,---,0.00,VWS V14.00,2013-05-12 13:50:00,
2013-05-12 09:55:00,51.8,46.5,30.02,SE,130,0.0,5.0,82,0.00,,---,0.00,VWS V14.00,2013-05-12 13:55:00,
2013-05-12 10:00:00,52.4,45.4,30.02,SE,128,0.0,5.0,77,0.00,,---,0.00,VWS V14.00,2013-05-12 14:00:00,
2013-05-12 10:05:00,52.7,44.7,30.02,ENE,61,1.0,5.0,74,0.00,,---,0.00,VWS V14.00,2013-05-12 14:05:00,
2013-05-12 10:10:00,53.2,45.1,30.02,SE,144,1.0,8.0,74,0.00,,---,0.00,VWS V14.00,2013-05-12 14:10:00,
2013-05-12 10:15:00,53.0,45.0,30.02,SW,222,0.0,8.0,74,0.00,,---,0.00,VWS V14.00,2013-05-12 14:15:00,
2013-05-12 10:20:00,53.0,46.0,30.02,South,180,1.0,9.0,77,0.00,,---,0.00,VWS V14.00,2013-05-12 14:20:00,
2013-05-12 10:25:00,52.8,44.0,30.03,SSE,159,3.0,10.0,72,0.00,,---,0.00,VWS V14.00,2013-05-12 14:25:00,
2013-05-12 10:30:00,52.7,45.4,30.03,SE,139,1.0,10.0,76,0.00,,---,0.00,VWS V14.00,2013-05-12 14:30:00,
2013-05-12 10:35:00,52.8,43.3,30.03,SSE,150,7.0,11.0,70,0.00,,---,0.00,VWS V14.00,2013-05-12 14:35:00,
2013-05-12 10:40:00,52.4,42.9,30.04,NNE,22,0.0,11.0,70,0.00,,---,0.00,VWS V14.00,2013-05-12 14:40:00,
2013-05-12 10:45:00,52.4,42.9,30.05,SSE,165,3.0,11.0,70,0.00,,---,0.00,VWS V14.00,2013-05-12 14:45:00,
2013-05-12 10:50:00,52.6,42.7,30.04,SSE,167,2.0,11.0,69,0.00,,---,0.00,VWS V14.00,2013-05-12 14:50:00,
2013-05-12 10:55:00,53.1,45.8,30.04,SSE,157,0.0,11.0,76,0.00,,---,0.00,VWS V14.00,2013-05-12 14:55:00,
2013-05-12 11:00:00,53.6,42.1,30.04,South,186,0.0,11.0,65,0.00,,---,0.00,VWS V14.00,2013-05-12 15:00:00,
2013-05-12 11:05:00,53.6,41.3,30.04,South,173,5.0,11.0,63,0.00,,---,0.00,VWS V14.00,2013-05-12 15:05:00,
2013-05-12 11:10:00,53.3,41.8,30.05,SSE,148,4.0,9.0,65,0.00,,---,0.00,VWS V14.00,2013-05-12 15:10:00,
2013-05-12 11:15:00,53.9,44.0,30.04,SSE,148,0.0,9.0,69,0.00,,---,0.00,VWS V14.00,2013-05-12 15:15:00,
2013-05-12 11:20:00,54.9,41.7,30.03,ESE,121,3.0,12.0,61,0.00,,---,0.00,VWS V14.00,2013-05-12 15:20:00,
2013-05-12 11:25:00,55.4,42.2,30.04,SSE,159,2.0,12.0,61,0.00,,---,0.00,VWS V14.00,2013-05-12 15:25:00,
2013-05-12 11:30:00,56.2,42.1,30.03,SSE,157,0.0,12.0,59,0.00,,---,0.00,VWS V14.00,2013-05-12 15:30:00,
2013-05-12 11:35:00,57.3,47.2,30.03,South,169,3.0,12.0,69,0.00,,---,0.00,VWS V14.00,2013-05-12 15:35:00,
2013-05-12 11:40:00,57.5,42.8,30.04,SSE,148,4.0,6.0,58,0.00,,---,0.00,VWS V14.00,2013-05-12 15:40:00,
2013-05-12 11:45:00,56.0,42.3,30.05,SSE,153,8.0,13.0,60,0.00,,---,0.00,VWS V14.00,2013-05-12 15:45:00,
2013-05-12 11:50:00,56.0,42.3,30.05,SSW,198,0.0,13.0,60,0.00,,---,0.00,VWS V14.00,2013-05-12 15:50:00,
2013-05-12 11:55:00,56.5,41.0,30.05,SSW,202,7.0,13.0,56,0.00,,---,0.00,VWS V14.00,2013-05-12 15:55:00,
2013-05-12 12:00:00,56.7,43.4,30.04,East,101,5.0,13.0,61,0.00,,---,0.00,VWS V14.00,2013-05-12 16:00:00,
2013-05-12 12:05:00,57.4,42.3,30.05,ESE,121,1.0,13.0,57,0.00,,---,0.00,VWS V14.00,2013-05-12 16:05:00,
2013-05-12 12:10:00,57.3,44.0,30.05,SSE,157,2.0,2.0,61,0.00,,---,0.00,VWS V14.00,2013-05-12 16:10:00,
2013-05-12 12:15:00,57.7,45.6,30.04,SE,139,6.0,11.0,64,0.00,,---,0.00,VWS V14.00,2013-05-12 16:15:00,
2013-05-12 12:20:00,57.5,40.5,30.05,South,180,4.0,11.0,53,0.00,,---,0.00,VWS V14.00,2013-05-12 16:20:00,
2013-05-12 12:25:00,57.3,39.8,30.05,South,176,0.0,14.0,52,0.00,,---,0.00,VWS V14.00,2013-05-12 16:25:00,
2013-05-12 12:30:00,57.3,43.5,30.05,South,172,4.0,14.0,60,0.00,,---,0.00,VWS V14.00,2013-05-12 16:30:00,
2013-05-12 12:35:00,57.2,43.5,30.04,SSW,209,1.0,14.0,60,0.00,,---,0.00,VWS V14.00,2013-05-12 16:35:00,
2013-05-12 12:40:00,56.7,43.0,30.06,SSW,213,12.0,12.0,60,0.00,,---,0.00,VWS V14.00,2013-05-12 16:40:00,
2013-05-12 12:45:00,56.9,41.8,30.06,East,101,3.0,12.0,57,0.00,,---,0.00,VWS V14.00,2013-05-12 16:45:00,
2013-05-12 12:50:00,57.6,41.6,30.04,NNE,17,7.0,13.0,55,0.00,,---,0.00,VWS V14.00,2013-05-12 16:50:00,
2013-05-12 12:55:00,58.0,42.4,30.04,SSE,153,12.0,13.0,56,0.00,,---,0.00,VWS V14.00,2013-05-12 16:55:00,
2013-05-12 13:00:00,57.8,41.8,30.05,South,172,11.0,14.0,55,0.00,,---,0.00,VWS V14.00,2013-05-12 17:00:00,
2013-05-12 13:05:00,57.2,40.7,30.05,SSE,164,4.0,14.0,54,0.00,,---,0.00,VWS V14.00,2013-05-12 17:05:00,
2013-05-12 13:10:00,57.1,40.6,30.06,East,86,0.0,5.0,54,0.00,,---,0.00,VWS V14.00,2013-05-12 17:10:00,
2013-05-12 13:15:00,56.8,39.4,30.06,ESE,121,0.0,9.0,52,0.00,,---,0.00,VWS V14.00,2013-05-12 17:15:00,
2013-05-12 13:20:00,57.2,41.2,30.06,SSE,156,7.0,14.0,55,0.00,,---,0.00,VWS V14.00,2013-05-12 17:20:00,
2013-05-12 13:25:00,58.0,43.3,30.05,South,169,1.0,15.0,58,0.00,,---,0.00,VWS V14.00,2013-05-12 17:25:00,
2013-05-12 13:30:00,59.0,41.9,30.05,South,171,1.0,15.0,53,0.00,,---,0.00,VWS V14.00,2013-05-12 17:30:00,
2013-05-12 13:35:00,59.4,44.2,30.05,SE,138,12.0,15.0,57,0.00,,---,0.00,VWS V14.00,2013-05-12 17:35:00,
2013-05-12 13:40:00,59.1,40.0,30.05,SE,140,0.0,14.0,49,0.00,,---,0.00,VWS V14.00,2013-05-12 17:40:00,
2013-05-12 13:45:00,59.2,40.6,30.05,SE,130,2.0,14.0,50,0.00,,---,0.00,VWS V14.00,2013-05-12 17:45:00,
2013-05-12 13:50:00,59.0,41.4,30.05,South,180,11.0,14.0,52,0.00,,---,0.00,VWS V14.00,2013-05-12 17:50:00,
2013-05-12 13:55:00,57.9,38.9,30.05,SSE,167,0.0,16.0,49,0.00,,---,0.00,VWS V14.00,2013-05-12 17:55:00,
2013-05-12 14:00:00,58.2,40.2,30.05,ESE,103,4.0,16.0,51,0.00,,---,0.00,VWS V14.00,2013-05-12 18:00:00,
2013-05-12 14:05:00,59.0,42.4,30.03,SSE,163,3.0,16.0,54,0.00,,---,0.00,VWS V14.00,2013-05-12 18:05:00,
2013-05-12 14:10:00,59.3,42.2,30.04,SSE,151,4.0,10.0,53,0.00,,---,0.00,VWS V14.00,2013-05-12 18:10:00,
2013-05-12 14:15:00,59.9,43.2,30.04,SSE,155,10.0,10.0,54,0.00,,---,0.00,VWS V14.00,2013-05-12 18:15:00,
2013-05-12 14:20:00,60.3,41.6,30.05,South,186,5.0,11.0,50,0.00,,---,0.00,VWS V14.00,2013-05-12 18:20:00,
2013-05-12 14:25:00,59.0,41.4,30.05,South,186,12.0,18.0,52,0.00,,---,0.00,VWS V14.00,2013-05-12 18:25:00,
2013-05-12 14:30:00,58.5,42.4,30.05,South,175,5.0,18.0,55,0.00,,---,0.00,VWS V14.00,2013-05-12 18:30:00,
2013-05-12 14:35:00,58.2,40.2,30.05,SSW,204,2.0,18.0,51,0.00,,---,0.00,VWS V14.00,2013-05-12 18:35:00,
2013-05-12 14:40:00,58.4,41.8,30.05,SSE,164,0.0,7.0,54,0.00,,---,0.00,VWS V14.00,2013-05-12 18:40:00,
2013-05-12 14:45:00,59.0,41.4,30.05,SSE,152,3.0,7.0,52,0.00,,---,0.00,VWS V14.00,2013-05-12 18:45:00,
2013-05-12 14:50:00,59.0,40.4,30.05,ESE,113,2.0,14.0,50,0.00,,---,0.00,VWS V14.00,2013-05-12 18:50:00,
2013-05-12 14:55:00,59.3,41.2,30.05,SSE,155,4.0,14.0,51,0.00,,---,0.00,VWS V14.00,2013-05-12 18:55:00,
2013-05-12 15:00:00,59.4,41.3,30.04,SSE,164,4.0,14.0,51,0.00,,---,0.00,VWS V14.00,2013-05-12 19:00:00,
2013-05-12 15:05:00,59.6,41.5,30.04,ESE,115,3.0,14.0,51,0.00,,---,0.00,VWS V14.00,2013-05-12 19:05:00,
2013-05-12 15:10:00,60.0,43.3,30.04,South,184,10.0,10.0,54,0.00,,---,0.00,VWS V14.00,2013-05-12 19:10:00,
2013-05-12 15:15:00,59.8,44.1,30.04,ENE,58,0.0,15.0,56,0.00,,---,0.00,VWS V14.00,2013-05-12 19:15:00,
2013-05-12 15:20:00,60.0,40.8,30.04,ESE,109,4.0,16.0,49,0.00,,---,0.00,VWS V14.00,2013-05-12 19:20:00,
2013-05-12 15:25:00,60.7,44.0,30.04,South,185,3.0,16.0,54,0.00,,---,0.00,VWS V14.00,2013-05-12 19:25:00,
2013-05-12 15:30:00,60.9,41.6,30.04,SSE,159,12.0,16.0,49,0.00,,---,0.00,VWS V14.00,2013-05-12 19:30:00,
2013-05-12 15:35:00,60.4,41.2,30.04,SSE,157,1.0,16.0,49,0.00,,---,0.00,VWS V14.00,2013-05-12 19:35:00,
2013-05-12 15:40:00,59.9,40.2,30.04,SSW,196,0.0,12.0,48,0.00,,---,0.00,VWS V14.00,2013-05-12 19:40:00,
2013-05-12 15:45:00,59.7,40.0,30.04,SE,129,3.0,12.0,48,0.00,,---,0.00,VWS V14.00,2013-05-12 19:45:00,
2013-05-12 15:50:00,60.1,42.9,30.03,ESE,103,0.0,12.0,53,0.00,,---,0.00,VWS V14.00,2013-05-12 19:50:00,
2013-05-12 15:55:00,60.7,40.9,30.03,SSW,213,3.0,12.0,48,0.00,,---,0.00,VWS V14.00,2013-05-12 19:55:00,
2013-05-12 16:00:00,60.7,42.5,30.03,SE,135,0.0,12.0,51,0.00,,---,0.00,VWS V14.00,2013-05-12 20:00:00,
2013-05-12 16:05:00,60.8,41.5,30.03,SSE,153,6.0,12.0,49,0.00,,---,0.00,VWS V14.00,2013-05-12 20:05:00,
2013-05-12 16:10:00,60.8,43.1,30.02,SE,129,3.0,6.0,52,0.00,,---,0.00,VWS V14.00,2013-05-12 20:10:00,
2013-05-12 16:15:00,60.5,42.3,30.02,SSW,202,1.0,11.0,51,0.00,,---,0.00,VWS V14.00,2013-05-12 20:15:00,
2013-05-12 16:20:00,60.1,40.4,30.02,South,175,6.0,15.0,48,0.00,,---,0.00,VWS V14.00,2013-05-12 20:20:00,
2013-05-12 16:25:00,59.1,40.5,30.03,ESE,110,0.0,15.0,50,0.00,,---,0.00,VWS V14.00,2013-05-12 20:25:00,
2013-05-12 16:30:00,59.0,38.3,30.03,South,175,2.0,15.0,46,0.00,,---,0.00,VWS V14.00,2013-05-12 20:30:00,
2013-05-12 16:35:00,58.8,39.2,30.03,WSW,243,4.0,15.0,48,0.00,,---,0.00,VWS V14.00,2013-05-12 20:35:00,
2013-05-12 16:40:00,59.0,39.9,30.03,SSE,150,0.0,8.0,49,0.00,,---,0.00,VWS V14.00,2013-05-12 20:40:00,
2013-05-12 16:45:00,59.0,38.3,30.03,SSE,149,3.0,10.0,46,0.00,,---,0.00,VWS V14.00,2013-05-12 20:45:00,
2013-05-12 16:50:00,58.6,36.8,30.03,SSE,155,9.0,16.0,44,0.00,,---,0.00,VWS V14.00,2013-05-12 20:50:00,
2013-05-12 16:55:00,58.5,38.4,30.03,SE,146,7.0,16.0,47,0.00,,---,0.00,VWS V14.00,2013-05-12 20:55:00,
2013-05-12 17:00:00,58.3,38.7,30.04,SSE,147,3.0,16.0,48,0.00,,---,0.00,VWS V14.00,2013-05-12 21:00:00,
2013-05-12 17:05:00,58.4,38.8,30.04,South,180,4.0,16.0,48,0.00,,---,0.00,VWS V14.00,2013-05-12 21:05:00,
2013-05-12 17:10:00,58.6,39.5,30.04,South,179,0.0,7.0,49,0.00,,---,0.00,VWS V14.00,2013-05-12 21:10:00,
2013-05-12 17:15:00,58.4,36.6,30.04,SSE,168,11.0,12.0,44,0.00,,---,0.00,VWS V14.00,2013-05-12 21:15:00,
2013-05-12 17:20:00,57.7,36.5,30.05,ESE,119,3.0,18.0,45,0.00,,---,0.00,VWS V14.00,2013-05-12 21:20:00,
2013-05-12 17:25:00,57.5,35.8,30.05,SE,140,6.0,18.0,44,0.00,,---,0.00,VWS V14.00,2013-05-12 21:25:00,
2013-05-12 17:30:00,57.2,36.6,30.06,South,183,2.0,18.0,46,0.00,,---,0.00,VWS V14.00,2013-05-12 21:30:00,
2013-05-12 17:35:00,57.2,35.5,30.06,ESE,118,4.0,18.0,44,0.00,,---,0.00,VWS V14.00,2013-05-12 21:35:00,
2013-05-12 17:40:00,57.1,34.2,30.06,SSE,153,10.0,14.0,42,0.00,,---,0.00,VWS V14.00,2013-05-12 21:40:00,
2013-05-12 17:45:00,56.8,34.6,30.06,East,94,7.0,14.0,43,0.00,,---,0.00,VWS V14.00,2013-05-12 21:45:00,
2013-05-12 17:50:00,56.7,34.5,30.06,SE,132,1.0,14.0,43,0.00,,---,0.00,VWS V14.00,2013-05-12 21:50:00,
2013-05-12 17:55:00,56.5,35.4,30.06,SSE,158,3.0,14.0,45,0.00,,---,0.00,VWS V14.00,2013-05-12 21:55:00,
2013-05-12 18:00:00,56.1,33.3,30.06,SE,140,6.0,14.0,42,0.00,,---,0.00,VWS V14.00,2013-05-12 22:00:00,
2013-05-12 18:05:00,56.1,37.7,30.06,SW,222,3.0,14.0,50,0.00,,---,0.00,VWS V14.00,2013-05-12 22:05:00,
2013-05-12 18:10:00,56.0,35.0,30.06,SSE,160,0.0,6.0,45,0.00,,---,0.00,VWS V14.00,2013-05-12 22:10:00,
2013-05-12 18:15:00,55.7,36.3,30.06,SSE,151,0.0,7.0,48,0.00,,---,0.00,VWS V14.00,2013-05-12 22:15:00,
2013-05-12 18:20:00,55.6,35.2,30.06,South,173,6.0,7.0,46,0.00,,---,0.00,VWS V14.00,2013-05-12 22:20:00,
2013-05-12 18:25:00,55.3,33.8,30.06,SE,146,0.0,11.0,44,0.00,,---,0.00,VWS V14.00,2013-05-12 22:25:00,
2013-05-12 18:30:00,55.1,34.7,30.06,SSE,165,2.0,11.0,46,0.00,,---,0.00,VWS V14.00,2013-05-12 22:30:00,
2013-05-12 18:35:00,54.6,33.7,30.07,SSW,194,1.0,11.0,45,0.00,,---,0.00,VWS V14.00,2013-05-12 22:35:00,
2013-05-12 18:40:00,54.3,34.5,30.07,SSE,167,0.0,4.0,47,0.00,,---,0.00,VWS V14.00,2013-05-12 22:40:00,
2013-05-12 18:45:00,54.1,38.8,30.07,SSE,167,1.0,4.0,56,0.00,,---,0.00,VWS V14.00,2013-05-12 22:45:00,
2013-05-12 18:50:00,53.9,39.5,30.07,ENE,59,0.0,5.0,58,0.00,,---,0.00,VWS V14.00,2013-05-12 22:50:00,
2013-05-12 18:55:00,53.6,36.4,30.07,South,175,0.0,5.0,52,0.00,,---,0.00,VWS V14.00,2013-05-12 22:55:00,
2013-05-12 19:00:00,53.4,37.7,30.07,South,175,0.0,5.0,55,0.00,,---,0.00,VWS V14.00,2013-05-12 23:00:00,
2013-05-12 19:05:00,53.0,35.9,30.07,ESE,119,1.0,5.0,52,0.00,,---,0.00,VWS V14.00,2013-05-12 23:05:00,
2013-05-12 19:09:00,52.7,37.5,30.07,SSE,159,0.0,0.0,56,0.00,,---,0.00,VWS V14.00,2013-05-12 23:09:00,
2013-05-12 19:14:00,52.4,36.7,30.07,SSE,166,0.0,3.0,55,0.00,,---,0.00,VWS V14.00,2013-05-12 23:14:00,
2013-05-12 19:19:00,52.1,36.0,30.08,SSE,166,0.0,3.0,54,0.00,,---,0.00,VWS V14.00,2013-05-12 23:19:00,
2013-05-12 19:24:00,51.7,34.7,30.08,SSE,166,0.0,3.0,52,0.00,,---,0.00,VWS V14.00,2013-05-12 23:24:00,
2013-05-12 19:29:00,51.4,34.9,30.08,SSE,165,0.0,3.0,53,0.00,,---,0.00,VWS V14.00,2013-05-12 23:29:00,
2013-05-12 19:34:00,51.1,34.1,30.08,SSE,165,0.0,3.0,52,0.00,,---,0.00,VWS V14.00,2013-05-12 23:34:00,
2013-05-12 19:39:00,50.8,34.8,30.08,SSW,202,0.0,2.0,54,0.00,,---,0.00,VWS V14.00,2013-05-12 23:39:00,
2013-05-12 19:44:00,50.5,34.0,30.09,SSW,202,0.0,2.0,53,0.00,,---,0.00,VWS V14.00,2013-05-12 23:44:00,
2013-05-12 19:49:00,50.2,33.7,30.09,SSW,202,0.0,2.0,53,0.00,,---,0.00,VWS V14.00,2013-05-12 23:49:00,
2013-05-12 19:54:00,49.9,33.5,30.09,SSW,202,0.0,2.0,53,0.00,,---,0.00,VWS V14.00,2013-05-12 23:54:00,
2013-05-12 19:59:00,49.7,34.7,30.09,SSW,202,0.0,2.0,56,0.00,,---,0.00,VWS V14.00,2013-05-12 23:59:00,
2013-05-12 20:04:00,49.5,33.6,30.09,South,182,0.0,4.0,54,0.00,,---,0.00,VWS V14.00,2013-05-13 00:04:00,
2013-05-12 20:09:00,49.3,34.3,30.09,South,182,1.0,1.0,56,0.00,,---,0.00,VWS V14.00,2013-05-13 00:09:00,
2013-05-12 20:14:00,49.1,33.7,30.09,South,182,0.0,3.0,55,0.00,,---,0.00,VWS V14.00,2013-05-13 00:14:00,
2013-05-12 20:19:00,48.9,33.0,30.10,South,182,0.0,3.0,54,0.00,,---,0.00,VWS V14.00,2013-05-13 00:19:00,
2013-05-12 20:24:00,48.7,32.8,30.09,South,182,0.0,3.0,54,0.00,,---,0.00,VWS V14.00,2013-05-13 00:24:00,
2013-05-12 20:29:00,48.5,33.5,30.09,South,182,0.0,3.0,56,0.00,,---,0.00,VWS V14.00,2013-05-13 00:29:00,
2013-05-12 20:34:00,48.5,31.7,30.09,South,169,0.0,4.0,52,0.00,,---,0.00,VWS V14.00,2013-05-13 00:34:00,
2013-05-12 20:39:00,48.5,34.4,30.09,ESE,107,0.0,0.0,58,0.00,,---,0.00,VWS V14.00,2013-05-13 00:39:00,
2013-05-12 20:44:00,48.3,33.3,30.09,North,360,0.0,3.0,56,0.00,,---,0.00,VWS V14.00,2013-05-13 00:44:00,
2013-05-12 20:49:00,48.0,33.5,30.09,NW,304,1.0,3.0,57,0.00,,---,0.00,VWS V14.00,2013-05-13 00:49:00,
2013-05-12 20:54:00,47.7,33.2,30.10,NW,306,1.0,3.0,57,0.00,,---,0.00,VWS V14.00,2013-05-13 00:54:00,
2013-05-12 20:59:00,47.5,33.0,30.10,NW,306,0.0,3.0,57,0.00,,---,0.00,VWS V14.00,2013-05-13 00:59:00,
2013-05-12 21:04:00,47.3,32.8,30.10,NW,306,0.0,3.0,57,0.00,,---,0.00,VWS V14.00,2013-05-13 01:04:00,
2013-05-12 21:09:00,47.1,33.1,30.10,NW,306,0.0,1.0,58,0.00,,---,0.00,VWS V14.00,2013-05-13 01:09:00,
2013-05-12 21:14:00,46.9,32.9,30.10,NW,306,0.0,2.0,58,0.00,,---,0.00,VWS V14.00,2013-05-13 01:14:00,
2013-05-12 21:19:00,46.8,33.7,30.11,NW,306,0.0,2.0,60,0.00,,---,0.00,VWS V14.00,2013-05-13 01:19:00,
2013-05-12 21:24:00,46.7,34.0,30.11,NW,306,1.0,2.0,61,0.00,,---,0.00,VWS V14.00,2013-05-13 01:24:00,
2013-05-12 21:29:00,46.5,33.8,30.11,NW,306,0.0,2.0,61,0.00,,---,0.00,VWS V14.00,2013-05-13 01:29:00,
2013-05-12 21:34:00,46.4,33.7,30.11,NW,306,0.0,2.0,61,0.00,,---,0.00,VWS V14.00,2013-05-13 01:34:00,
2013-05-12 21:39:00,46.2,33.1,30.12,NW,306,1.0,2.0,60,0.00,,---,0.00,VWS V14.00,2013-05-13 01:39:00,
2013-05-12 21:44:00,46.1,33.0,30.12,NW,305,0.0,2.0,60,0.00,,---,0.00,VWS V14.00,2013-05-13 01:44:00,
2013-05-12 21:49:00,46.0,33.3,30.12,NW,309,2.0,3.0,61,0.00,,---,0.00,VWS V14.00,2013-05-13 01:49:00,
2013-05-12 21:54:00,45.9,33.2,30.12,NW,309,0.0,3.0,61,0.00,,---,0.00,VWS V14.00,2013-05-13 01:54:00,
2013-05-12 21:59:00,45.9,33.6,30.12,NW,309,0.0,3.0,62,0.00,,---,0.00,VWS V14.00,2013-05-13 01:59:00,
2013-05-12 22:04:00,45.8,33.1,30.12,NW,309,0.0,3.0,61,0.00,,---,0.00,VWS V14.00,2013-05-13 02:04:00,
2013-05-12 22:09:00,45.8,33.5,30.11,NW,308,0.0,1.0,62,0.00,,---,0.00,VWS V14.00,2013-05-13 02:09:00,
2013-05-12 22:14:00,45.7,33.4,30.11,NW,309,0.0,2.0,62,0.00,,---,0.00,VWS V14.00,2013-05-13 02:14:00,
2013-05-12 22:19:00,45.7,33.8,30.12,NW,309,1.0,2.0,63,0.00,,---,0.00,VWS V14.00,2013-05-13 02:19:00,
2013-05-12 22:24:00,45.7,34.2,30.12,NW,309,0.0,2.0,64,0.00,,---,0.00,VWS V14.00,2013-05-13 02:24:00,
2013-05-12 22:29:00,45.6,33.8,30.13,NW,309,0.0,2.0,63,0.00,,---,0.00,VWS V14.00,2013-05-13 02:29:00,
2013-05-12 22:34:00,45.6,33.3,30.13,NW,309,0.0,2.0,62,0.00,,---,0.00,VWS V14.00,2013-05-13 02:34:00,
2013-05-12 22:39:00,45.5,33.2,30.12,NW,309,0.0,0.0,62,0.00,,---,0.00,VWS V14.00,2013-05-13 02:39:00,
2013-05-12 22:44:00,45.5,33.2,30.13,NW,309,0.0,0.0,62,0.00,,---,0.00,VWS V14.00,2013-05-13 02:44:00,
2013-05-12 22:49:00,45.5,33.2,30.13,NW,309,0.0,2.0,62,0.00,,---,0.00,VWS V14.00,2013-05-13 02:49:00,
2013-05-12 22:54:00,45.4,34.0,30.13,NW,309,0.0,2.0,64,0.00,,---,0.00,VWS V14.00,2013-05-13 02:54:00,
2013-05-12 22:59:00,45.3,33.1,30.13,NW,309,0.0,2.0,62,0.00,,---,0.00,VWS V14.00,2013-05-13 02:59:00,
2013-05-12 23:04:00,45.2,32.6,30.14,NW,309,0.0,2.0,61,0.00,,---,0.00,VWS V14.00,2013-05-13 03:04:00,
2013-05-12 23:09:00,45.1,34.4,30.12,NW,309,0.0,0.0,66,0.00,,---,0.00,VWS V14.00,2013-05-13 03:09:00,
2013-05-12 23:14:00,45.0,33.2,30.13,NW,309,0.0,1.0,63,0.00,,---,0.00,VWS V14.00,2013-05-13 03:14:00,
2013-05-12 23:19:00,45.0,32.8,30.12,NW,309,0.0,2.0,62,0.00,,---,0.00,VWS V14.00,2013-05-13 03:19:00,
2013-05-12 23:24:00,44.9,33.1,30.13,NW,309,0.0,2.0,63,0.00,,---,0.00,VWS V14.00,2013-05-13 03:24:00,
2013-05-12 23:29:00,44.8,34.2,30.13,NW,309,1.0,2.0,66,0.00,,---,0.00,VWS V14.00,2013-05-13 03:29:00,
2013-05-12 23:34:00,44.7,34.0,30.13,NW,309,0.0,2.0,66,0.00,,---,0.00,VWS V14.00,2013-05-13 03:34:00,
2013-05-12 23:39:00,44.6,34.0,30.13,NW,309,0.0,1.0,66,0.00,,---,0.00,VWS V14.00,2013-05-13 03:39:00,
2013-05-12 23:44:00,44.5,33.5,30.13,NW,309,0.0,1.0,65,0.00,,---,0.00,VWS V14.00,2013-05-13 03:44:00,
2013-05-12 23:49:00,44.4,34.1,30.14,NW,309,0.0,1.0,67,0.00,,---,0.00,VWS V14.00,2013-05-13 03:49:00,
2013-05-12 23:54:00,44.3,33.7,30.14,NW,309,0.0,1.0,66,0.00,,---,0.00,VWS V14.00,2013-05-13 03:54:00,
2013-05-12 23:59:00,44.2,33.6,30.14,NW,309,0.0,2.0,66,0.00,,---,0.00,VWS V14.00,2013-05-13 03:59:00,